[[{"header":{"parameterUnit":"m.s-1","parameterCategory":1,"la1":30.2991,"la2":30.254,"lo1":-89.0895,"lo2":-89.0444,"dy":0.0017,"dx":0.0017,"nx":28,"ny":28,"refTime":"2025-03-13T09:00:00:Z","depth":0,"parameterNumber":2,"parameterNumberName":"U-component_of_WINDS"},"data":[0,0,0,0,0,0,0,0,0,0,0,0,0,0,0,0,0,0,0,0,0,0,0,0,0,0,0,0,0,0,0,0,0,0,0,0,0,0,0,0,0,0,0,0,0,0,0,0,0,0,0,0,0,0,0,0,0,0,-1.2377,-1.2377,0,-1.2425,-1.2426,-1.2426,-1.2434,-1.2433,-1.2433,-1.2432,-1.2481,-1.2483,-1.2485,0,0,0,0,0,0,0,0,0,0,0,0,0,-1.2291,-1.2292,-1.2377,-1.2377,-1.2378,-1.2425,-1.2426,-1.2427,-1.2434,-1.2433,-1.2433,-1.2432,-1.2481,-1.2483,-1.2485,0,0,0,0,0,0,0,0,0,0,0,0,0,-1.2333,-1.2293,-1.2377,-1.2387,-1.2389,-1.2425,-1.2426,-1.2427,-1.2434,-1.2433,-1.2433,-1.2432,-1.248,-1.2483,-1.2485,-1.2514,0,0,-1.2493,-1.2494,0,0,0,0,0,0,0,0,-1.233,-1.2336,-1.2385,-1.2387,-1.2388,-1.2423,-1.2414,-1.2456,-1.2434,-1.2417,-1.2432,-1.2432,-1.2462,-1.2466,-1.2477,-1.2516,-1.2518,-1.2493,-1.2495,-1.2496,-1.2497,0,0,0,0,0,0,0,-1.2327,-1.2334,-1.2396,-1.2386,-1.2388,-1.239,-1.2395,-1.2422,-1.2443,-1.2418,-1.2419,-1.2425,-1.2463,-1.2474,-1.2478,-1.2519,-1.2493,-1.2495,-1.2497,-1.2498,-1.2585,-1.2586,0,0,0,0,0,0,-1.2323,-1.2331,-1.2394,-1.2397,-1.2357,-1.2392,-1.2398,-1.2412,-1.2442,-1.2446,-1.2425,-1.2425,-1.247,-1.2475,-1.248,-1.2516,-1.2496,-1.2498,-1.25,-1.2585,-1.2586,-1.2586,0,0,0,0,0,0,-1.2321,-1.2328,-1.2392,-1.2365,-1.2373,-1.2394,-1.241,-1.2414,-1.2425,-1.2448,-1.2451,-1.2433,-1.247,-1.2476,-1.2506,-1.2517,-1.2499,-1.2502,-1.2584,-1.2585,-1.2586,-1.2587,0,0,0,0,0,0,-1.2318,-1.2327,-1.2338,-1.2365,-1.2374,-1.2417,-1.2411,-1.2415,-1.2429,-1.2429,-1.2456,-1.2459,-1.247,-1.2502,-1.2508,-1.2521,-1.2504,-1.2583,-1.2584,-1.2586,-1.2586,-1.2589,-1.259,0,0,0,0,0,-1.2315,-1.2337,-1.2339,-1.2346,-1.2389,-1.2418,-1.2424,-1.2435,-1.243,-1.2442,-1.2456,-1.2459,-1.2515,-1.2505,-1.2512,-1.2525,-1.2582,-1.2584,-1.2585,-1.2586,-1.2588,-1.259,0,0,0,0,0,0,-1.2311,-1.234,-1.2343,-1.2374,-1.2393,-1.2419,-1.2434,-1.2438,-1.2459,-1.2458,-1.2472,-1.2478,-1.2507,-1.2519,-1.2507,-1.2555,-1.2548,-1.2552,-1.2546,-1.2548,-1.255,-1.2546,-1.2506,0,0,0,0,0,-1.2313,-1.2335,-1.236,-1.2384,-1.2394,-1.2412,-1.2426,-1.2433,-1.2454,-1.2462,-1.2479,-1.2499,-1.2521,-1.2536,-1.2558,-1.2589,-1.2595,-1.2602,-1.2604,-1.2605,-1.2607,-1.2625,-1.2629,-1.2592,-1.2592,-1.2592,0,0,-1.2319,-1.2338,-1.235,-1.2384,-1.24,-1.2422,-1.2419,-1.2442,-1.2459,-1.2466,-1.2494,-1.2508,-1.2531,-1.2561,-1.2576,-1.2573,-1.2619,-1.2607,-1.2608,-1.261,-1.2627,-1.2631,-1.2634,-1.2593,-1.2593,-1.2593,0,0,-1.234,-1.2357,-1.2379,-1.2396,-1.242,-1.2432,-1.2438,-1.2463,-1.2472,-1.2502,-1.2508,-1.2528,-1.2566,-1.2582,-1.2596,-1.2624,-1.2627,-1.2631,-1.2641,-1.2658,-1.2661,-1.2664,-1.2674,-1.2677,-1.2634,-1.2634,-1.2634,0,-1.2344,-1.2377,-1.239,-1.2413,-1.2428,-1.2436,-1.2459,-1.2474,-1.2505,-1.2515,-1.2511,-1.256,-1.2576,-1.2611,-1.2618,-1.2629,-1.2635,-1.2628,-1.266,-1.2662,-1.2665,-1.2675,-1.2679,-1.2634,-1.2634,-1.2634,-1.2634,0,-1.238,-1.2403,-1.2419,-1.2448,-1.2465,-1.2488,-1.2505,-1.252,-1.2527,-1.2539,-1.2569,-1.2589,-1.2615,-1.2624,-1.2631,-1.266,-1.2658,-1.2657,-1.265,-1.2668,-1.2678,-1.2682,-1.2634,-1.2634,-1.2634,-1.2634,0,0,-1.2399,-1.2436,-1.2442,-1.2455,-1.2484,-1.2502,-1.2526,-1.2552,-1.2564,-1.2585,-1.2606,-1.2638,-1.2638,-1.2653,-1.2662,-1.2677,-1.2699,-1.2674,-1.2675,-1.2678,-1.2732,-1.2732,-1.2736,-1.2701,-1.2702,-1.2703,-1.273,0,-1.2423,-1.2465,-1.2479,-1.2514,-1.2536,-1.2544,-1.2565,-1.2585,-1.2597,-1.2618,-1.2632,-1.2655,-1.2653,-1.2662,-1.2677,-1.2693,-1.271,-1.2691,-1.272,-1.2721,-1.2713,-1.2741,-1.2741,-1.2766,-1.2734,-1.2735,-1.2735,0,-1.2457,-1.2479,-1.2516,-1.2543,-1.2552,-1.2571,-1.2596,-1.2615,-1.2638,-1.2646,-1.2664,-1.2672,-1.2697,-1.2689,-1.2724,-1.2711,-1.2724,-1.2734,-1.2735,-1.2738,-1.2728,-1.2744,-1.2775,-1.2778,-1.2741,-1.2741,-1.274,0,-1.2466,-1.2505,-1.2533,-1.2545,-1.2576,-1.2589,-1.2602,-1.2625,-1.264,-1.2662,-1.2672,-1.2697,-1.271,-1.2729,-1.2744,-1.2737,-1.2778,-1.2771,-1.2785,-1.2785,-1.2792,-1.2792,-1.2825,-1.2802,-1.2802,-1.2801,-1.2801,0,-1.2491,-1.2514,-1.2538,-1.2555,-1.2581,-1.2596,-1.2621,-1.2635,-1.2655,-1.2675,-1.2684,-1.2703,-1.2721,-1.2742,-1.2753,-1.2781,-1.2787,-1.2794,-1.2797,-1.2793,-1.2792,-1.2801,-1.2799,-1.2803,-1.2802,-1.2802,-1.2802,0,-1.2506,-1.2523,-1.2553,-1.2581,-1.2588,-1.2606,-1.263,-1.2647,-1.266,-1.2686,-1.2693,-1.2714,-1.2739,-1.2756,-1.2788,-1.2796,-1.2826,-1.2828,-1.2818,-1.2819,-1.2832,-1.283,-1.2871,-1.2878,-1.2851,-1.2851,-1.2851,0,-1.252,-1.2538,-1.2568,-1.2582,-1.2596,-1.2619,-1.2634,-1.265,-1.2666,-1.2694,-1.2708,-1.2734,-1.2755,-1.2796,-1.2814,-1.2839,-1.2842,-1.2855,-1.2845,-1.2841,-1.2842,-1.284,-1.2842,-1.2856,-1.2856,-1.2856,-1.2856,0,-1.2545,-1.2552,-1.2575,-1.26,-1.2619,-1.2639,-1.266,-1.2671,-1.2691,-1.2708,-1.2735,-1.2751,-1.2785,-1.2811,-1.2838,-1.2852,-1.2857,-1.2859,-1.2864,-1.286,-1.2853,-1.2857,-1.2821,-1.2858,-1.2858,-1.2858,-1.2857,-1.2857,-1.256,-1.2576,-1.2599,-1.2624,-1.2642,-1.2661,-1.2678,-1.2695,-1.2717,-1.2745,-1.2754,-1.2781,-1.2804,-1.2841,-1.2856,-1.2877,-1.2876,-1.2882,-1.2884,-1.2885,-1.2885,-1.285,-1.2882,-1.2882,-1.2882,-1.2882,-1.2882,0,-1.2584,-1.26,-1.2623,-1.2651,-1.2671,-1.2675,-1.2699,-1.2715,-1.2739,-1.276,-1.2781,-1.2812,-1.2837,-1.2858,-1.2884,-1.2898,-1.2901,-1.2904,-1.2903,-1.2906,-1.2885,-1.2879,-1.2901,-1.2901,-1.2901,-1.2901,-1.2901,-1.2901,-1.2599,-1.2627,-1.2638,-1.2675,-1.269,-1.2717,-1.273,-1.2749,-1.2766,-1.2799,-1.2821,-1.2834,-1.2855,-1.2883,-1.2907,-1.2913,-1.2922,-1.2924,-1.293,-1.291,-1.2908,-1.2906,-1.2899,-1.2926,-1.2926,-1.2949,-1.295,-1.295]},{"header":{"parameterUnit":"m.s-1","parameterCategory":1,"la1":30.2991,"la2":30.254,"lo1":-89.0895,"lo2":-89.0444,"dy":0.0017,"dx":0.0017,"nx":28,"ny":28,"refTime":"2025-03-13T09:00:00:Z","depth":0,"parameterNumber":3,"parameterNumberName":"V-component_of_WINDS"},"data":[0,0,0,0,0,0,0,0,0,0,0,0,0,0,0,0,0,0,0,0,0,0,0,0,0,0,0,0,0,0,0,0,0,0,0,0,0,0,0,0,0,0,0,0,0,0,0,0,0,0,0,0,0,0,0,0,0,0,2.8241,2.8243,0,2.8347,2.8349,2.835,2.8372,2.8371,2.837,2.8369,2.848,2.8484,2.8487,0,0,0,0,0,0,0,0,0,0,0,0,0,2.8063,2.8066,2.8241,2.8243,2.8244,2.8347,2.8349,2.835,2.8372,2.8371,2.837,2.8369,2.8479,2.8483,2.8488,0,0,0,0,0,0,0,0,0,0,0,0,0,2.8152,2.8067,2.8241,2.8267,2.8271,2.8347,2.8349,2.8351,2.8372,2.8371,2.837,2.8369,2.8477,2.8483,2.8488,2.8547,0,0,2.8505,2.8508,0,0,0,0,0,0,0,0,2.8146,2.8158,2.8262,2.8266,2.8269,2.8345,2.8326,2.8416,2.8372,2.8334,2.8369,2.8368,2.8436,2.8445,2.8468,2.8552,2.8557,2.8506,2.8509,2.8511,2.8513,0,0,0,0,0,0,0,2.814,2.8154,2.8283,2.8264,2.8268,2.8275,2.8287,2.8344,2.8391,2.8337,2.8339,2.8351,2.8438,2.8462,2.8471,2.8558,2.8506,2.851,2.8514,2.8516,2.8701,2.8702,0,0,0,0,0,0,2.8129,2.8148,2.828,2.8287,2.8204,2.8279,2.8292,2.8322,2.839,2.8399,2.8352,2.8352,2.8453,2.8464,2.8474,2.8551,2.8511,2.8517,2.852,2.8699,2.8701,2.8703,0,0,0,0,0,0,2.8125,2.814,2.8276,2.8218,2.8236,2.8284,2.8317,2.8325,2.8349,2.8401,2.841,2.8368,2.8453,2.8467,2.853,2.8555,2.8519,2.8524,2.8697,2.87,2.8702,2.8701,0,0,0,0,0,0,2.812,2.8139,2.816,2.8218,2.8239,2.8327,2.8319,2.8328,2.8358,2.8359,2.8418,2.8427,2.8453,2.8521,2.8535,2.8562,2.8528,2.8695,2.8698,2.8701,2.8699,2.8703,2.8707,0,0,0,0,0,2.8113,2.8155,2.8161,2.8177,2.8266,2.8329,2.8341,2.8369,2.836,2.8383,2.8418,2.8425,2.8549,2.8527,2.8543,2.8572,2.8694,2.8698,2.8701,2.8697,2.8702,2.8707,0,0,0,0,0,0,2.8098,2.8163,2.817,2.8232,2.8275,2.8332,2.8362,2.8373,2.8419,2.8418,2.8452,2.8465,2.8527,2.8556,2.853,2.8634,2.8622,2.8628,2.8613,2.8618,2.8622,2.8615,2.8533,0,0,0,0,0,2.8102,2.8146,2.8201,2.825,2.8272,2.8313,2.8341,2.836,2.8406,2.8424,2.8463,2.8508,2.8558,2.8589,2.8638,2.8703,2.8719,2.8731,2.8735,2.8738,2.8744,2.8785,2.8792,2.8715,2.8715,2.8714,0,0,2.8111,2.8152,2.8177,2.8249,2.8284,2.8331,2.8328,2.8377,2.8413,2.8432,2.8494,2.8524,2.8577,2.8643,2.8674,2.8669,2.8769,2.8742,2.8744,2.8749,2.8789,2.8796,2.8803,2.8717,2.8717,2.8716,0,0,2.8151,2.8185,2.8231,2.8267,2.8321,2.8349,2.836,2.8417,2.8438,2.8501,2.8518,2.8562,2.8645,2.8684,2.8714,2.8773,2.8783,2.8788,2.8808,2.8847,2.8853,2.8859,2.8883,2.8891,2.8793,2.8793,2.8793,0,2.8155,2.8225,2.8254,2.8303,2.8336,2.8355,2.8405,2.8438,2.8505,2.8528,2.8521,2.863,2.8667,2.8743,2.8758,2.8781,2.8797,2.8781,2.885,2.8856,2.8861,2.8885,2.8893,2.8794,2.8794,2.8794,2.8794,0,2.8229,2.8278,2.8309,2.8374,2.841,2.8459,2.8497,2.8531,2.8547,2.8576,2.8643,2.8688,2.8748,2.8767,2.8783,2.8848,2.8843,2.8843,2.8831,2.8869,2.8891,2.89,2.8794,2.8794,2.8794,2.8794,0,0,2.8261,2.8343,2.8355,2.8386,2.8448,2.8488,2.8539,2.8598,2.8627,2.8673,2.8719,2.8792,2.8793,2.8828,2.8848,2.8883,2.8931,2.8879,2.8881,2.8889,2.9009,2.901,2.902,2.8938,2.8939,2.8941,2.9005,0,2.831,2.8401,2.8431,2.8508,2.8555,2.8576,2.8622,2.8666,2.8696,2.8742,2.8776,2.8828,2.8824,2.8845,2.888,2.8917,2.8956,2.8913,2.8983,2.8985,2.8971,2.9031,2.9032,2.909,2.9014,2.9015,2.9016,0,2.8379,2.8427,2.8509,2.8569,2.8591,2.863,2.8689,2.8732,2.8784,2.8804,2.8844,2.8863,2.8921,2.8905,2.8986,2.8957,2.8988,2.9011,2.9014,2.9023,2.9004,2.9044,2.9109,2.9119,2.903,2.9029,2.9028,0,2.8397,2.8483,2.8544,2.857,2.8641,2.8669,2.87,2.8751,2.8786,2.8837,2.8861,2.8918,2.895,2.8995,2.903,2.9015,2.911,2.9096,2.913,2.9129,2.9149,2.9148,2.9223,2.9166,2.9166,2.9166,2.9165,0,2.845,2.85,2.8554,2.8591,2.8649,2.8684,2.8741,2.8774,2.882,2.8866,2.8888,2.8931,2.8974,2.9024,2.9052,2.9117,2.913,2.915,2.9157,2.9149,2.9147,2.9171,2.9168,2.9168,2.9167,2.9167,2.9167,0,2.848,2.8518,2.8587,2.8649,2.8666,2.8706,2.8761,2.88,2.8831,2.889,2.8906,2.8956,2.9016,2.9056,2.9132,2.9151,2.9223,2.9228,2.9206,2.9209,2.9242,2.9239,2.9336,2.9352,2.9282,2.9283,2.9284,0,2.8512,2.8551,2.8619,2.8651,2.8683,2.8734,2.877,2.8807,2.8844,2.8909,2.8941,2.9003,2.9054,2.915,2.9194,2.9254,2.9262,2.9292,2.9271,2.9263,2.9266,2.9264,2.927,2.9296,2.9296,2.9297,2.9297,0,2.8566,2.8584,2.8634,2.8692,2.8735,2.8782,2.883,2.8856,2.8902,2.8943,2.9005,2.9045,2.9124,2.9186,2.9251,2.9285,2.93,2.9303,2.9315,2.9308,2.9294,2.9305,2.9217,2.9301,2.9301,2.93,2.93,2.93,2.86,2.8637,2.8691,2.8748,2.8788,2.8833,2.8874,2.8912,2.8964,2.9031,2.905,2.9116,2.9172,2.926,2.9296,2.9349,2.9346,2.9362,2.9366,2.937,2.9372,2.9285,2.9361,2.9361,2.9361,2.9361,2.936,0,2.8657,2.8693,2.8745,2.8812,2.8858,2.8867,2.8922,2.896,2.9017,2.9068,2.9118,2.9192,2.9253,2.9304,2.9368,2.9401,2.941,2.9417,2.9416,2.9424,2.937,2.9354,2.9409,2.9409,2.9409,2.9409,2.9409,2.9409,2.8692,2.8757,2.8781,2.8868,2.8905,2.8969,2.9,2.9043,2.9083,2.9164,2.9216,2.9248,2.93,2.9368,2.9426,2.944,2.9463,2.947,2.9485,2.9433,2.9428,2.9422,2.9409,2.9474,2.9474,2.9536,2.9536,2.9537]}]]